Kalamazoo, MI

5:36 AM EST on December 15, 2017 (GMT -0500)
Kalamazoo-Battle Creek International

Weather History for KAZO - December, 1985

Change the Weather History Date:

Sunday, December 29, 1985

  Actual Average Record
Temperature  
Mean Temperature 18 °F 26 °F  
Max Temperature 22 °F 32 °F 65 °F (1984)
Min Temperature 14 °F 19 °F -4 °F (1961)
Degree Days  
Heating Degree Days 47 39  
Month to date heating degree days 1043  
Since 1 July heating degree days 2370  
Cooling Degree Days 0 0  
Month to date cooling degree days 0  
Year to date cooling degree days 675  
Moisture  
Dew Point 13 °F    
Average Humidity 77    
Maximum Humidity 84    
Minimum Humidity 74    
Precipitation  
Precipitation 0.00 in 0.05 in 0.85 in (1948)
Month to date precipitation 1.86  
Year to date precipitation 35.62  
Sea Level Pressure  
Sea Level Pressure 29.88 in    
Wind  
Wind Speed 16 mph (West)    
Max Wind Speed 21 mph    
Max Gust Speed 29 mph    
Visibility 9 miles    
Events Snow    
T = Trace of Precipitation, MM = Missing Value Source: NWS Daily Summary

Daily Weather History Graph

Daily Weather History Graph

Search for Another Location

Airport or City:

Trip Planner

Search our weather history database for the weather conditions in past years. The results will help you decide how hot, cold, wet, or windy it might be!

Date:

Astronomy

Dec. 29, 1985 Rise Set
Actual Time 8:10 AM EST 5:18 PM EST
Civil Twilight 7:38 AM EST 5:50 PM EST
Nautical Twilight 7:03 AM EST 6:25 PM EST
Astronomical Twilight 6:29 AM EST 6:59 PM EST
Moon 7:32 PM EST (12/29) 10:17 AM EST (12/29)
Length of Visible Light 10h 11m
Length of Day
9h 07m
Waning Gibbous, 94% of the Moon is Illuminated
Dec 29
Waning Gibbous
Jan 3
Last Quarter
Jan 10
New
Jan 17
First Quarter
Jan 25
Full

Hourly Weather History & Observations

Time (EST) Temp. Windchill Dew Point Humidity Pressure Visibility Wind Dir Wind Speed Gust Speed Precip Events Conditions
6:00 AM 21.2 °F 8.9 °F 15.3 °F 78% 29.74 in 7.0 mi West 12.7 mph - N/A Snow Light Snow
7:00 AM 21.2 °F 6.0 °F 14.2 °F 74% 29.75 in 5.0 mi West 19.6 mph - N/A Snow Light Snow
8:00 AM 20.1 °F 4.2 °F 14.2 °F 78% 29.76 in 5.0 mi West 20.7 mph - N/A Snow Light Snow
9:00 AM 20.1 °F 6.9 °F 14.2 °F 78% 29.78 in 3.0 mi West 13.8 mph 23.0 mph N/A Snow Light Snow
10:00 AM 20.1 °F 6.9 °F 13.1 °F 74% 29.82 in 3.0 mi West 13.8 mph 23.0 mph N/A Snow Light Snow
11:00 AM 20.1 °F 6.9 °F 14.2 °F 78% 29.84 in 3.0 mi West 13.8 mph 23.0 mph N/A Snow Light Snow
12:00 PM 20.1 °F 5.9 °F 15.3 °F 81% 29.86 in 2.0 mi West 16.1 mph 23.0 mph N/A Snow Light Snow
1:00 PM 21.2 °F 6.8 °F 15.3 °F 78% 29.87 in 2.0 mi West 17.3 mph 28.8 mph N/A Snow Light Snow
2:00 PM 21.2 °F 7.3 °F 14.2 °F 74% 29.88 in 4.0 mi West 16.1 mph 23.0 mph N/A Snow Light Snow
3:00 PM 21.2 °F 6.8 °F 15.3 °F 78% 29.89 in 4.0 mi West 17.3 mph 23.0 mph N/A Snow Light Snow
4:00 PM 22.1 °F 8.0 °F 15.3 °F 75% 29.90 in 7.0 mi West 17.3 mph 23.0 mph N/A   Overcast
5:00 PM 20.1 °F 5.4 °F 15.3 °F 81% 29.91 in 10.0 mi WSW 17.3 mph - N/A   Mostly Cloudy
6:00 PM 19.2 °F 5.8 °F 13.1 °F 77% 29.92 in 10.0 mi WSW 13.8 mph - N/A   Mostly Cloudy
7:00 PM 17.2 °F 4.5 °F 10.2 °F 74% 29.94 in 15.0 mi WSW 11.5 mph - N/A   Overcast
8:00 PM 15.3 °F -1.8 °F 8.2 °F 74% 29.95 in 15.0 mi WSW 19.6 mph - N/A   Overcast
9:00 PM 15.3 °F -0.9 °F 9.1 °F 77% 29.95 in 15.0 mi WSW 17.3 mph - N/A   Overcast
10:00 PM 14.2 °F -0.6 °F 9.1 °F 80% 29.96 in 20.0 mi WSW 13.8 mph - N/A   Scattered Clouds
10:10 PM - - - N/A% 29.96 in 20.0 mi WSW 11.5 mph - N/A   Mostly Cloudy
11:00 PM 16.2 °F 1.3 °F 12.2 °F 84% 29.97 in 20.0 mi WSW 15.0 mph - N/A   Overcast